DW8780 Weather Reports


time (UTC)temp
C
wind
direction
speed
KPH
gust
KPH
rain 1hr
cm
rain 24hr
cm
rain mn
cm
humidity
%
barometer
mb
20260507061004 17 306 1.6 6.4 0.00 0.05 0.00 91 1009.9
20260507060504 17 311 1.6 6.4 0.00 0.05 0.00 90 1009.9
20260507060004 17 323 1.6 4.8 0.00 0.05 0.00 90 1009.9
20260507055503 17 329 1.6 4.8 0.00 0.05 0.00 90 1009.6
20260507053503 17 291 0.0 3.2 0.00 0.05 0.00 89 1009.5
20260507053004 17 305 0.0 3.2 0.00 0.05 0.00 89 1009.4
20260507052504 17 324 0.0 3.2 0.00 0.05 0.00 89 1009.5
20260507052003 17 324 0.0 3.2 0.00 0.05 0.00 89 1009.8
20260507051503 17 313 0.0 3.2 0.00 0.05 0.00 89 1010.0
20260507051003 17 327 0.0 3.2 0.00 0.05 0.00 89 1009.9
20260507050504 17 325 0.0 3.2 0.00 0.05 0.00 89 1010.0
20260507050003 17 339 1.6 6.4 0.00 0.05 0.00 89 1010.1
20260507045504 17 342 1.6 6.4 0.00 0.05 0.00 89 1010.0
20260507045004 17 346 1.6 6.4 0.00 0.05 0.00 89 1010.0
20260507044503 17 357 1.6 6.4 0.00 0.05 0.00 89 1010.0
20260507044004 17 359 1.6 6.4 0.00 0.05 0.00 90 1010.1
20260507043504 17 359 1.6 6.4 0.00 0.05 0.00 90 1010.2
20260507043003 17 357 1.6 6.4 0.00 0.05 0.00 90 1010.2
20260507042504 17 358 1.6 6.4 0.00 0.05 0.00 90 1010.2
20260507041504 17 7 0.0 4.8 0.00 0.05 0.00 90 1010.2
20260507041003 17 12 0.0 3.2 0.00 0.05 0.00 90 1010.2
20260507040503 17 340 0.0 3.2 0.00 0.05 0.00 90 1010.3
20260507035503 17 320 0.0 3.2 0.00 0.05 0.05 89 1010.2
20260507034503 17 319 0.0 3.2 0.00 0.05 0.05 88 1010.0
20260507033503 17 358 0.0 3.2 0.00 0.05 0.05 88 1009.8
20260507033003 17 1 1.6 3.2 0.00 0.05 0.05 88 1009.6
20260507032504 17 2 1.6 3.2 0.00 0.05 0.05 88 1009.6
20260507032004 17 1 1.6 4.8 0.00 0.05 0.05 88 1009.6
20260507031504 17 1 1.6 4.8 0.00 0.05 0.05 88 1009.6
20260507030004 17 2 1.6 4.8 0.00 0.05 0.05 88 1009.9
20260507025503 17 1 1.6 6.4 0.00 0.05 0.05 88 1010.0
20260507025003 17 359 1.6 6.4 0.00 0.05 0.05 88 1010.0
20260507024504 17 359 1.6 4.8 0.00 0.05 0.05 88 1009.9
20260507024003 17 1 1.6 3.2 0.00 0.05 0.05 87 1010.0
20260507023504 17 1 1.6 3.2 0.00 0.05 0.05 87 1010.1
20260507022504 17 2 0.0 3.2 0.00 0.05 0.05 87 1010.3
20260507022003 17 355 0.0 3.2 0.00 0.05 0.05 86 1010.2
20260507021503 17 1 0.0 3.2 0.00 0.05 0.05 86 1010.2
20260507020504 18 343 0.0 3.2 0.00 0.05 0.05 85 1010.2
20260507020003 18 339 0.0 3.2 0.00 0.05 0.05 85 1010.4
20260507015504 18 93 0.0 3.2 0.00 0.05 0.05 85 1010.3
20260507015003 18 95 0.0 3.2 0.00 0.05 0.05 84 1010.3
20260507014504 18 5 0.0 3.2 0.00 0.05 0.05 84 1010.7
20260507014003 18 3 1.6 3.2 0.00 0.05 0.05 84 1010.7
20260507013504 18 357 1.6 3.2 0.00 0.05 0.05 84 1010.6
20260507013003 18 342 0.0 3.2 0.00 0.05 0.05 84 1010.5
20260507012004 18 8 0.0 3.2 0.00 0.05 0.05 84 1010.3
20260507011503 18 12 0.0 3.2 0.00 0.05 0.05 84 1010.3
20260507010503 18 43 0.0 3.2 0.00 0.05 0.05 84 1010.2
20260507010003 18 34 0.0 3.2 0.00 0.05 0.05 83 1010.2
20260507005504 18 57 0.0 3.2 0.00 0.05 0.05 83 1010.1
20260507005003 18 7 0.0 1.6 0.00 0.05 0.05 82 1010.3
20260507004004 19 342 0.0 3.2 0.00 0.05 0.05 81 1010.2
20260507003503 19 330 0.0 3.2 0.00 0.05 0.05 81 1010.1
20260507003005 19 332 0.0 3.2 0.00 0.05 0.05 81 1009.9
20260507002503 19 322 0.0 4.8 0.00 0.05 0.05 80 1009.9
20260507001504 20 327 1.6 4.8 0.00 0.05 0.05 80 1009.9
20260507001004 20 321 1.6 3.2 0.00 0.05 0.05 79 1009.8
20260507000003 20 344 1.6 4.8 0.00 0.05 0.05 79 1009.7
20260506235503 20 351 1.6 4.8 0.00 0.05 0.05 78 1009.7
20260506235003 20 340 1.6 4.8 0.00 0.05 0.05 78 1009.7
20260506234004 20 352 1.6 4.8 0.00 0.05 0.05 77 1009.7
20260506233503 20 340 1.6 6.4 0.00 0.05 0.05 77 1009.6
20260506233004 20 335 1.6 6.4 0.00 0.05 0.05 76 1009.6
20260506232503 21 346 1.6 11.3 0.00 0.05 0.05 77 1009.6
20260506232003 21 336 3.2 11.3 0.00 0.05 0.05 76 1009.5
20260506231504 21 335 3.2 11.3 0.00 0.05 0.05 76 1009.5
20260506231003 21 337 3.2 9.7 0.00 0.05 0.05 76 1009.6
20260506230504 21 320 3.2 9.7 0.00 0.05 0.05 76 1009.7
20260506230004 21 309 3.2 8.0 0.00 0.05 0.05 75 1009.7
20260506225503 21 323 3.2 9.7 0.00 0.05 0.05 76 1009.7
20260506225003 21 336 4.8 12.9 0.00 0.05 0.05 75 1009.6
20260506224504 21 348 4.8 20.9 0.00 0.05 0.05 75 1009.7
20260506224003 21 329 6.4 22.5 0.00 0.05 0.05 75 1009.7
20260506223504 21 313 4.8 22.5 0.00 0.05 0.05 75 1009.7
20260506223003 21 332 4.8 12.9 0.00 0.05 0.05 75 1009.7
20260506222502 21 331 4.8 17.7 0.00 0.05 0.05 75 1009.6
20260506222002 21 317 4.8 17.7 0.00 0.05 0.05 75 1009.6
20260506221502 21 320 4.8 14.5 0.00 0.05 0.05 74 1009.7
20260506221003 21 317 6.4 16.1 0.00 0.05 0.05 75 1009.7
20260506220503 21 323 8.0 22.5 0.00 0.05 0.05 75 1009.8
20260506220002 21 335 6.4 22.5 0.00 0.05 0.05 75 1009.7
20260506215504 21 334 4.8 22.5 0.00 0.05 0.05 75 1009.6
20260506215002 21 332 4.8 12.9 0.00 0.05 0.05 75 1009.5
20260506214503 21 337 4.8 20.9 0.00 0.05 0.05 75 1009.6
20260506214002 21 337 6.4 20.9 0.00 0.05 0.05 75 1009.6
20260506213502 21 338 6.4 17.7 0.00 0.05 0.05 75 1009.6
20260506213002 21 331 6.4 17.7 0.00 0.05 0.05 75 1009.5
20260506212503 21 332 8.0 30.6 0.00 0.05 0.05 75 1009.5
20260506211002 21 339 6.4 20.9 0.00 0.05 0.05 75 1009.5
20260506210503 21 348 6.4 20.9 0.00 0.05 0.05 75 1009.5
20260506210002 21 348 8.0 29.0 0.00 0.05 0.05 75 1009.5
20260506205503 21 340 8.0 29.0 0.00 0.05 0.05 74 1009.5
20260506204004 21 334 8.0 24.1 0.00 0.05 0.05 74 1009.7
20260506203503 21 338 8.0 24.1 0.00 0.05 0.05 74 1009.6
20260506203002 21 338 6.4 16.1 0.00 0.05 0.05 74 1009.6
20260506202503 21 342 6.4 20.9 0.00 0.05 0.05 74 1009.4
20260506202004 21 348 8.0 20.9 0.00 0.05 0.05 74 1009.6
20260506201503 21 350 8.0 17.7 0.00 0.05 0.05 73 1009.6
20260506201003 21 339 8.0 22.5 0.00 0.05 0.05 74 1009.7
20260506200502 21 341 9.7 33.8 0.00 0.05 0.05 74 1009.7
20260506200003 21 348 9.7 33.8 0.00 0.05 0.05 74 1009.6
20260506195504 21 339 8.0 30.6 0.00 0.05 0.05 74 1009.9
20260506195003 21 342 6.4 17.7 0.00 0.05 0.05 74 1010.2
20260506194503 21 347 6.4 17.7 0.00 0.05 0.05 73 1010.2
20260506194003 21 344 6.4 16.1 0.00 0.05 0.05 73 1010.4
20260506193503 21 349 8.0 24.1 0.00 0.05 0.05 73 1010.5
20260506193003 21 346 9.7 24.1 0.00 0.05 0.05 73 1010.1
20260506192504 21 348 11.3 32.2 0.00 0.05 0.05 73 1009.9
20260506191502 21 355 9.7 29.0 0.00 0.05 0.05 74 1009.8
20260506191003 21 351 11.3 29.0 0.00 0.05 0.05 74 1010.0
20260506190502 21 346 8.0 30.6 0.00 0.05 0.05 75 1010.3
20260506190003 21 340 6.4 30.6 0.00 0.05 0.05 75 1010.5
20260506185503 21 337 8.0 22.5 0.00 0.05 0.05 76 1010.5
20260506185002 21 345 9.7 29.0 0.00 0.05 0.05 75 1010.7
20260506184503 21 350 11.3 29.0 0.00 0.05 0.05 75 1010.7
20260506184003 20 355 11.3 33.8 0.00 0.05 0.05 77 1010.6
20260506183502 20 355 11.3 33.8 0.00 0.05 0.05 77 1010.6
20260506183002 20 350 9.7 29.0 0.00 0.05 0.05 79 1010.7
20260506182502 20 348 9.7 32.2 0.00 0.05 0.05 79 1010.6
20260506182002 20 351 11.3 32.2 0.00 0.05 0.05 79 1010.4
20260506181502 20 351 9.7 30.6 0.00 0.05 0.05 82 1010.7
20260506181003 20 345 8.0 25.7 0.00 0.05 0.05 83 1010.9
20260506180002 19 349 6.4 20.9 0.00 0.05 0.05 86 1011.0
20260506175502 19 352 8.0 20.9 0.03 0.05 0.05 86 1010.9
20260506175003 19 352 8.0 19.3 0.03 0.05 0.05 86 1011.0
20260506174502 18 348 6.4 19.3 0.03 0.05 0.05 86 1011.1
20260506174003 18 353 6.4 19.3 0.03 0.05 0.05 87 1011.1
20260506173502 18 354 6.4 29.0 0.03 0.05 0.05 88 1011.0
20260506172502 18 356 8.0 27.4 0.03 0.05 0.05 87 1011.1
20260506172002 18 1 8.0 27.4 0.03 0.05 0.05 87 1011.1
20260506170502 18 355 8.0 25.7 0.05 0.05 0.05 87 1011.5
20260506170003 18 354 8.0 25.7 0.05 0.05 0.05 87 1011.6
20260506165502 18 356 8.0 32.2 0.03 0.03 0.03 86 1011.4
20260506165002 18 356 6.4 32.2 0.03 0.03 0.03 85 1011.6
20260506164502 18 356 8.0 20.9 0.03 0.03 0.03 86 1011.7
20260506164002 18 358 8.0 20.9 0.03 0.03 0.03 85 1011.8
20260506163503 18 359 8.0 20.9 0.03 0.03 0.03 85 1011.9
20260506163002 18 356 6.4 20.9 0.03 0.03 0.03 84 1012.0
20260506162002 18 355 6.4 32.2 0.03 0.03 0.03 83 1012.3
20260506161502 18 353 8.0 32.2 0.03 0.03 0.03 83 1012.2
20260506161003 18 355 6.4 27.4 0.03 0.03 0.03 82 1012.4
20260506160502 19 357 8.0 24.1 0.00 0.00 0.00 82 1012.5
20260506160002 19 352 8.0 24.1 0.00 0.00 0.00 79 1012.5
20260506155503 20 353 6.4 19.3 0.00 0.00 0.00 78 1012.4
20260506155002 20 355 6.4 25.7 0.00 0.00 0.00 73 1012.6
20260506154502 20 345 8.0 30.6 0.00 0.00 0.00 73 1012.7
20260506154002 20 342 6.4 30.6 0.00 0.00 0.00 73 1012.6
20260506153502 20 348 6.4 19.3 0.00 0.00 0.00 73 1012.6
20260506153002 20 347 9.7 22.5 0.00 0.00 0.00 73 1012.6
20260506152502 20 342 9.7 29.0 0.00 0.00 0.00 72 1012.6
20260506150002 21 337 6.4 19.3 0.00 0.00 0.00 68 1012.4
20260506145504 21 332 6.4 16.1 0.00 0.00 0.00 66 1012.4
20260506145002 21 334 6.4 29.0 0.00 0.00 0.00 67 1012.5
20260506144503 21 339 8.0 29.0 0.00 0.00 0.00 66 1012.6
20260506144002 21 335 8.0 22.5 0.00 0.00 0.00 66 1012.5
20260506143503 21 329 9.7 35.4 0.00 0.00 0.00 66 1012.4
20260506143003 21 334 9.7 35.4 0.00 0.00 0.00 66 1012.4
20260506142002 21 344 11.3 32.2 0.00 0.00 0.00 65 1012.4
20260506141504 21 353 9.7 30.6 0.00 0.00 0.00 66 1012.3
20260506141002 21 345 11.3 30.6 0.00 0.00 0.00 66 1012.3
20260506140502 21 351 11.3 30.6 0.00 0.00 0.00 66 1012.3
20260506140002 21 357 9.7 27.4 0.00 0.00 0.00 66 1012.2
20260506135503 21 355 11.3 33.8 0.00 0.00 0.00 67 1012.4
20260506135003 21 355 11.3 33.8 0.00 0.00 0.00 66 1012.3
20260506134503 21 357 9.7 33.8 0.00 0.00 0.00 66 1012.3
20260506134002 21 356 9.7 33.8 0.00 0.00 0.00 67 1012.6
20260506133502 21 355 9.7 29.0 0.00 0.00 0.00 67 1012.5
20260506133003 21 353 9.7 35.4 0.00 0.00 0.00 68 1012.7
20260506132502 21 356 9.7 35.4 0.00 0.00 0.00 68 1012.6
20260506132003 21 353 8.0 20.9 0.00 0.00 0.00 68 1012.6
20260506131502 21 352 9.7 25.7 0.00 0.00 0.00 68 1012.5
20260506130503 20 355 9.7 38.6 0.00 0.00 0.00 70 1012.6
20260506125502 20 353 9.7 32.2 0.00 0.00 0.00 70 1012.9
20260506125003 20 353 9.7 32.2 0.00 0.00 0.00 70 1012.8
20260506124503 20 356 8.0 33.8 0.00 0.00 0.00 70 1012.8
20260506124003 20 353 8.0 33.8 0.00 0.00 0.00 71 1013.1
20260506123502 20 339 8.0 24.1 0.00 0.00 0.00 72 1013.0
20260506123002 19 343 6.4 22.5 0.00 0.00 0.00 72 1013.1
20260506122503 19 350 6.4 19.3 0.00 0.00 0.00 73 1013.3
20260506121502 19 343 8.0 24.1 0.00 0.00 0.00 72 1013.0
20260506121003 19 346 8.0 37.0 0.00 0.00 0.00 72 1013.1
20260506120002 19 349 8.0 32.2 0.00 0.00 0.00 72 1012.9
20260506115002 18 358 8.0 25.7 0.00 0.00 0.00 72 1012.7
20260506114502 18 352 8.0 25.7 0.00 0.00 0.00 73 1012.9
20260506114003 18 345 8.0 20.9 0.00 0.00 0.00 73 1012.9
20260506113503 18 347 8.0 20.9 0.00 0.00 0.00 73 1012.8
20260506113003 18 357 8.0 20.9 0.00 0.00 0.00 73 1012.6
20260506112003 18 346 8.0 20.9 0.00 0.00 0.00 73 1012.7
20260506111002 18 1 8.0 27.4 0.00 0.00 0.00 73 1012.6
20260506110003 18 356 8.0 22.5 0.00 0.00 0.00 73 1012.5
20260506105502 18 359 8.0 22.5 0.00 0.00 0.00 73 1012.4
20260506105003 17 354 6.4 17.7 0.00 0.00 0.00 73 1012.5
20260506104502 17 352 6.4 17.7 0.00 0.00 0.00 74 1012.5
20260506104003 17 355 6.4 19.3 0.00 0.00 0.00 73 1012.6
20260506103502 17 357 8.0 20.9 0.00 0.00 0.00 74 1012.6
20260506103003 17 356 6.4 20.9 0.00 0.00 0.00 73 1012.7
20260506102502 17 352 6.4 17.7 0.00 0.00 0.00 73 1012.7
20260506102003 17 354 6.4 17.7 0.00 0.00 0.00 73 1012.9
20260506101503 17 354 6.4 17.7 0.00 0.00 0.00 72 1012.7
20260506101002 17 355 4.8 17.7 0.00 0.00 0.00 72 1012.8
20260506100502 17 355 4.8 17.7 0.00 0.00 0.00 72 1012.6
20260506095503 17 349 6.4 25.7 0.00 0.00 0.00 72 1012.6
20260506095003 17 354 8.0 25.7 0.00 0.00 0.00 72 1012.6
20260506094502 17 355 6.4 22.5 0.00 0.00 0.00 72 1012.4
20260506093002 17 1 8.0 25.7 0.00 0.00 0.00 72 1012.4
20260506092502 17 359 6.4 16.1 0.00 0.00 0.00 73 1012.4
20260506092002 17 358 6.4 16.1 0.00 0.00 0.00 72 1012.6
20260506091502 17 355 6.4 17.7 0.00 0.00 0.00 72 1012.6
20260506090502 17 345 8.0 20.9 0.00 0.00 0.00 71 1012.5
20260506090003 18 344 6.4 20.9 0.00 0.00 0.00 71 1012.6
20260506085502 18 351 6.4 25.7 0.00 0.00 0.00 71 1012.4
20260506085002 18 352 8.0 25.7 0.00 0.00 0.00 71 1012.6
20260506084502 18 353 6.4 22.5 0.00 0.00 0.00 71 1012.7
20260506084002 18 353 8.0 22.5 0.00 0.00 0.00 71 1012.7
20260506083502 18 351 8.0 22.5 0.00 0.00 0.00 71 1012.9
20260506083003 18 347 6.4 25.7 0.00 0.00 0.00 71 1012.9
20260506082502 18 350 6.4 25.7 0.00 0.00 0.00 71 1012.9
20260506082003 18 349 4.8 22.5 0.00 0.00 0.00 71 1013.0
20260506081503 18 343 6.4 22.5 0.00 0.00 0.00 71 1012.9
20260506081002 18 330 6.4 22.5 0.00 0.00 0.00 71 1012.8
20260506073503 18 344 6.4 19.3 0.00 0.00 0.00 72 1012.9
20260506073003 18 339 6.4 22.5 0.00 0.00 0.00 72 1013.0
20260506072502 18 349 4.8 29.0 0.00 0.00 0.00 73 1013.0
20260506072003 18 353 4.8 29.0 0.00 0.00 0.00 73 1012.9
20260506071502 18 356 4.8 22.5 0.00 0.00 0.00 73 1012.9
20260506071002 18 353 6.4 24.1 0.00 0.00 0.00 73 1012.9
20260506070503 18 354 6.4 24.1 0.00 0.00 0.00 73 1013.0
20260506062503 18 1 8.0 22.5 0.00 0.00 0.00 72 1013.2
20260506062002 18 1 8.0 19.3 0.00 0.00 0.00 72 1013.1
20260506061502 19 357 8.0 27.4 0.00 0.00 0.00 72 1013.2